EW8073 Weather Reports


time (UTC)temp
C
wind
direction
speed
KPH
gust
KPH
rain 1hr
cm
rain 24hr
cm
rain mn
cm
humidity
%
barometer
mb
20260906205555 31 98 0.0 3.2 0.00 0.00 0.00 38 1014.8
20260906205056 31 343 0.0 3.2 0.00 0.00 0.00 39 1015.0
20260906204553 31 71 0.0 0.0 0.00 0.00 0.00 41 1015.0
20260906204050 31 74 0.0 0.0 0.00 0.00 0.00 41 1015.1
20260906203549 31 76 0.0 0.0 0.00 0.00 0.00 41 1015.1
20260906203049 31 76 0.0 1.6 0.00 0.00 0.00 44 1015.2
20260906202549 31 105 0.0 1.6 0.00 0.00 0.00 42 1015.2
20260906201545 30 301 0.0 0.0 0.00 0.00 0.00 49 1015.3
20260906201043 30 301 0.0 0.0 0.00 0.00 0.00 46 1015.4
20260906200542 30 22 0.0 0.0 0.00 0.00 0.00 47 1015.5
20260906200039 30 317 0.0 0.0 0.00 0.00 0.00 46 1015.5
20260906195537 29 323 0.0 0.0 0.00 0.00 0.00 47 1015.7
20260906195034 28 310 0.0 0.0 0.00 0.00 0.00 46 1015.8
20260906194533 28 308 0.0 1.6 0.00 0.00 0.00 46 1015.8
20260906194033 28 190 0.0 1.6 0.00 0.00 0.00 46 1015.9
20260906193030 28 96 0.0 0.0 0.00 0.00 0.00 46 1016.1
20260906192533 28 97 0.0 0.0 0.00 0.00 0.00 46 1016.1
20260906192027 27 98 0.0 0.0 0.00 0.00 0.00 47 1016.1
20260906191523 27 98 0.0 0.0 0.00 0.00 0.00 46 1016.4
20260906191022 27 98 0.0 0.0 0.00 0.00 0.00 46 1016.5
20260906185521 27 87 0.0 0.0 0.00 0.00 0.00 54 1016.6
20260906185021 26 87 0.0 0.0 0.00 0.00 0.00 55 1016.7
20260906184519 26 87 0.0 0.0 0.00 0.00 0.00 55 1016.7
20260906184018 26 91 0.0 0.0 0.00 0.00 0.00 58 1016.8
20260906183515 26 91 0.0 0.0 0.00 0.00 0.00 56 1016.9
20260906183013 26 91 0.0 0.0 0.00 0.00 0.00 56 1017.1
20260906181513 25 91 0.0 0.0 0.00 0.00 0.00 61 1017.4
20260906180512 25 31 0.0 0.0 0.00 0.00 0.00 61 1017.6
20260906180013 25 30 0.0 0.0 0.00 0.00 0.00 62 1017.8
20260906175512 25 281 0.0 0.0 0.00 0.00 0.00 63 1017.9
20260906175012 25 280 0.0 0.0 0.00 0.00 0.00 64 1017.9
20260906174512 25 280 0.0 0.0 0.00 0.00 0.00 65 1018.0
20260906174013 24 280 0.0 0.0 0.00 0.00 0.00 65 1018.1
20260906173515 24 282 0.0 0.0 0.00 0.00 0.00 65 1018.2
20260906173016 24 282 0.0 0.0 0.00 0.00 0.00 64 1018.5
20260906171512 23 306 0.0 0.0 0.00 0.00 0.00 67 1018.8
20260906171012 23 306 0.0 0.0 0.00 0.00 0.00 66 1018.8
20260906170012 23 306 0.0 0.0 0.00 0.00 0.00 67 1018.9
20260906165012 23 306 0.0 0.0 0.00 0.00 0.00 68 1018.9
20260906164513 23 302 0.0 0.0 0.00 0.00 0.00 69 1018.9
20260906163506 22 336 0.0 0.0 0.00 0.00 0.00 70 1018.9
20260906163001 22 292 0.0 0.0 0.00 0.00 0.00 70 1018.9
20260906162453 22 292 0.0 0.0 0.00 0.00 0.00 69 1019.0
20260906161441 22 274 0.0 0.0 0.00 0.00 0.00 70 1018.9
20260906160934 22 233 0.0 3.2 0.00 0.00 0.00 70 1018.9
20260906160427 22 270 0.0 6.4 0.00 0.00 0.00 70 1019.0
20260906155922 22 265 0.0 6.4 0.00 0.00 0.00 70 1018.9
20260906155416 21 335 0.0 0.0 0.00 0.00 0.00 71 1019.0
20260906154911 21 335 0.0 1.6 0.00 0.00 0.00 71 1018.9
20260906153857 21 351 0.0 0.0 0.00 0.00 0.00 71 1018.9
20260906152845 21 355 0.0 6.4 0.00 0.00 0.00 71 1019.0
20260906152340 21 324 0.0 6.4 0.00 0.00 0.00 72 1019.2
20260906151835 21 0 0.0 0.0 0.00 0.00 0.00 73 1019.2
20260906151329 21 5 0.0 1.6 0.00 0.00 0.00 73 1019.2
20260906150823 21 5 0.0 1.6 0.00 0.00 0.00 73 1019.2
20260906150316 20 281 0.0 0.0 0.00 0.00 0.00 74 1019.2
20260906145810 20 274 0.0 0.0 0.00 0.00 0.00 75 1019.3
20260906145306 20 272 0.0 0.0 0.00 0.00 0.00 76 1019.2
20260906144757 20 270 0.0 0.0 0.00 0.00 0.00 77 1019.2
20260906144252 20 309 0.0 0.0 0.00 0.00 0.00 78 1019.2
20260906143747 19 296 0.0 0.0 0.00 0.00 0.00 79 1019.0
20260906143239 19 239 0.0 0.0 0.00 0.00 0.00 80 1018.9
20260906142734 19 238 0.0 0.0 0.00 0.00 0.00 81 1019.0
20260906142228 18 297 0.0 0.0 0.00 0.00 0.00 82 1019.2
20260906141722 18 298 0.0 1.6 0.00 0.00 0.00 83 1019.2
20260906141216 18 298 0.0 1.6 0.00 0.00 0.00 83 1019.0
20260906140203 17 298 0.0 0.0 0.00 0.00 0.00 85 1019.2
20260906135659 17 298 0.0 0.0 0.00 0.00 0.00 85 1019.0
20260906135152 17 298 0.0 0.0 0.00 0.00 0.00 85 1019.0
20260906134645 17 298 0.0 0.0 0.00 0.00 0.00 85 1018.9
20260906134140 17 298 0.0 0.0 0.00 0.00 0.00 85 1018.9
20260906133129 17 298 0.0 0.0 0.00 0.00 0.00 84 1019.0
20260906132622 17 298 0.0 0.0 0.00 0.00 0.00 84 1018.9
20260906131610 17 298 0.0 0.0 0.00 0.00 0.00 83 1018.7
20260906131104 16 298 0.0 0.0 0.00 0.00 0.00 83 1018.6
20260906130558 16 298 0.0 0.0 0.00 0.00 0.00 83 1018.6
20260906130053 16 298 0.0 0.0 0.00 0.00 0.00 82 1018.6
20260906125548 16 298 0.0 0.0 0.00 0.00 0.00 82 1018.6
20260906125040 16 298 0.0 0.0 0.00 0.00 0.00 81 1018.5
20260906124534 16 298 0.0 0.0 0.00 0.00 0.00 81 1018.5
20260906123521 16 298 0.0 0.0 0.00 0.00 0.00 81 1018.6
20260906123017 16 298 0.0 0.0 0.00 0.00 0.00 81 1018.6
20260906122511 16 298 0.0 0.0 0.00 0.00 0.00 81 1018.6
20260906122004 16 298 0.0 0.0 0.00 0.00 0.00 80 1018.7
20260906121457 17 298 0.0 0.0 0.00 0.00 0.00 80 1018.8
20260906120445 17 298 0.0 0.0 0.00 0.00 0.00 80 1018.6
20260906115939 17 298 0.0 0.0 0.00 0.00 0.00 80 1018.5
20260906115435 17 298 0.0 0.0 0.00 0.00 0.00 80 1018.5
20260906114422 17 298 0.0 0.0 0.00 0.00 0.00 79 1018.7
20260906113916 17 298 0.0 0.0 0.00 0.00 0.00 79 1018.7
20260906112905 17 298 0.0 0.0 0.00 0.00 0.00 79 1018.7
20260906112359 17 298 0.0 0.0 0.00 0.00 0.00 79 1018.6
20260906111852 17 298 0.0 0.0 0.00 0.00 0.00 78 1018.5
20260906110839 17 298 0.0 0.0 0.00 0.00 0.00 78 1018.5
20260906110334 17 298 0.0 0.0 0.00 0.00 0.00 78 1018.3
20260906105829 17 298 0.0 0.0 0.00 0.00 0.00 77 1018.2
20260906105322 17 298 0.0 0.0 0.00 0.00 0.00 77 1018.2
20260906104816 18 298 0.0 0.0 0.00 0.00 0.00 76 1018.0
20260906104309 18 298 0.0 0.0 0.00 0.00 0.00 75 1018.2
20260906103804 18 298 0.0 0.0 0.00 0.00 0.00 74 1018.3
20260906103257 18 298 0.0 0.0 0.00 0.00 0.00 73 1018.1
20260906102751 18 298 0.0 0.0 0.00 0.00 0.00 72 1017.9
20260906101233 18 298 0.0 0.0 0.00 0.00 0.00 70 1018.0
20260906100728 18 298 0.0 0.0 0.00 0.00 0.00 70 1018.0
20260906100221 18 298 0.0 0.0 0.00 0.00 0.00 69 1018.1
20260906095716 18 298 0.0 0.0 0.00 0.00 0.00 69 1018.1
20260906095210 18 298 0.0 0.0 0.00 0.00 0.00 69 1018.2
20260906094703 18 298 0.0 0.0 0.00 0.00 0.00 68 1018.1
20260906094158 19 298 0.0 0.0 0.00 0.00 0.00 67 1018.1
20260906093153 19 298 0.0 0.0 0.00 0.00 0.00 66 1018.1
20260906092654 19 298 0.0 0.0 0.00 0.00 0.00 65 1018.0
20260906092155 19 298 0.0 0.0 0.00 0.00 0.00 64 1018.1
20260906091654 19 298 0.0 0.0 0.00 0.00 0.00 64 1018.0
20260906091152 19 298 0.0 0.0 0.00 0.00 0.00 64 1018.0
20260906090652 20 298 0.0 0.0 0.00 0.00 0.00 63 1018.0
20260906090151 20 298 0.0 0.0 0.00 0.00 0.00 63 1018.0
20260906085653 20 298 0.0 0.0 0.00 0.00 0.00 62 1017.8
20260906085151 20 298 0.0 0.0 0.00 0.00 0.00 62 1017.9
20260906084652 20 298 0.0 0.0 0.00 0.00 0.00 61 1017.8
20260906084147 20 298 0.0 0.0 0.00 0.00 0.00 61 1017.5
20260906083148 20 298 0.0 0.0 0.00 0.00 0.00 60 1017.3
20260906082647 20 298 0.0 0.0 0.00 0.00 0.00 61 1017.4
20260906081647 20 298 0.0 0.0 0.00 0.00 0.00 60 1017.5
20260906081147 20 298 0.0 0.0 0.00 0.00 0.00 60 1017.5
20260906080648 20 298 0.0 0.0 0.00 0.00 0.00 60 1017.5
20260906075644 20 298 0.0 0.0 0.00 0.00 0.00 59 1017.4
20260906075146 20 244 0.0 0.0 0.00 0.00 0.00 58 1017.5
20260906074144 20 244 0.0 0.0 0.00 0.00 0.00 55 1017.4
20260906073644 20 244 0.0 0.0 0.00 0.00 0.00 55 1017.4
20260906073143 20 244 0.0 0.0 0.00 0.00 0.00 55 1017.4
20260906072644 20 244 0.0 0.0 0.00 0.00 0.00 54 1017.3
20260906072143 21 244 0.0 0.0 0.00 0.00 0.00 54 1017.2
20260906071643 21 244 0.0 0.0 0.00 0.00 0.00 54 1017.2
20260906071137 21 253 0.0 0.0 0.00 0.00 0.00 53 1017.2
20260906070126 21 253 0.0 0.0 0.00 0.00 0.00 52 1017.2
20260906065619 21 253 0.0 0.0 0.00 0.00 0.00 52 1017.3
20260906065112 21 253 0.0 0.0 0.00 0.00 0.00 52 1017.4
20260906064607 22 253 0.0 0.0 0.00 0.00 0.00 52 1017.3
20260906064102 22 253 0.0 0.0 0.00 0.00 0.00 51 1017.4
20260906063555 22 253 0.0 0.0 0.00 0.00 0.00 51 1017.3
20260906063051 22 253 0.0 0.0 0.00 0.00 0.00 51 1017.2
20260906062543 22 253 0.0 0.0 0.00 0.00 0.00 50 1017.2
20260906062037 22 253 0.0 0.0 0.00 0.00 0.00 49 1017.2
20260906061531 22 253 0.0 0.0 0.00 0.00 0.00 49 1017.3
20260906060518 22 253 0.0 0.0 0.00 0.00 0.00 48 1017.2
20260906055003 22 253 0.0 0.0 0.00 0.00 0.00 48 1017.3
20260906054455 22 253 0.0 0.0 0.00 0.00 0.00 48 1017.5
20260906053949 22 253 0.0 0.0 0.00 0.00 0.00 47 1017.6
20260906053448 22 253 0.0 0.0 0.00 0.00 0.00 46 1017.8
20260906052446 22 253 0.0 0.0 0.00 0.00 0.00 46 1017.6
20260906051943 22 253 0.0 0.0 0.00 0.00 0.00 45 1017.6
20260906050439 22 253 0.0 0.0 0.00 0.00 0.00 45 1018.2
20260906045935 22 244 0.0 0.0 0.00 0.00 0.00 45 1018.2
20260906044429 22 242 0.0 0.0 0.00 0.00 0.00 44 1017.8
20260906043930 23 14 0.0 0.0 0.00 0.00 0.00 44 1017.8
20260906043429 23 14 0.0 0.0 0.00 0.00 0.00 43 1017.5
20260906042926 23 14 0.0 0.0 0.00 0.00 0.00 43 1017.3
20260906042426 23 14 0.0 0.0 0.00 0.00 0.00 42 1017.4
20260906041924 23 14 0.0 0.0 0.00 0.00 0.00 41 1017.4
20260906041424 23 14 0.0 0.0 0.00 0.00 0.00 40 1017.2
20260906040920 23 14 0.0 0.0 0.00 0.00 0.00 40 1016.9
20260906035420 24 14 0.0 0.0 0.00 0.00 0.00 39 1016.8
20260906034920 24 14 0.0 0.0 0.00 0.00 0.00 39 1016.8
20260906034419 25 14 0.0 0.0 0.00 0.00 0.00 38 1016.7
20260906033419 25 14 0.0 0.0 0.00 0.00 0.00 37 1016.7
20260906032920 25 14 0.0 0.0 0.00 0.00 0.00 37 1016.6
20260906032416 25 14 0.0 0.0 0.00 0.00 0.00 36 1016.6
20260906031915 25 14 0.0 0.0 0.00 0.00 0.00 36 1016.5
20260906031416 26 14 0.0 0.0 0.00 0.00 0.00 36 1016.5
20260906030915 26 14 0.0 0.0 0.00 0.00 0.00 35 1016.4
20260906030415 26 14 0.0 0.0 0.00 0.00 0.00 35 1016.2
20260906025416 26 14 0.0 0.0 0.00 0.00 0.00 34 1016.0
20260906024916 27 14 0.0 0.0 0.00 0.00 0.00 34 1016.1
20260906024416 27 14 0.0 0.0 0.00 0.00 0.00 33 1016.0
20260906023909 27 13 0.0 1.6 0.00 0.00 0.00 32 1015.9
20260906023405 27 327 0.0 1.6 0.00 0.00 0.00 32 1015.9
20260906022906 27 355 0.0 4.8 0.00 0.00 0.00 32 1015.8
20260906022406 27 340 0.0 4.8 0.00 0.00 0.00 32 1015.8
20260906021907 27 327 0.0 4.8 0.00 0.00 0.00 32 1015.7
20260906021404 27 345 0.0 1.6 0.00 0.00 0.00 32 1015.8
20260906020903 28 330 0.0 1.6 0.00 0.00 0.00 31 1015.7
20260906020403 28 326 0.0 1.6 0.00 0.00 0.00 30 1015.5
20260906015402 28 311 0.0 4.8 0.00 0.00 0.00 30 1015.4
20260906014901 28 348 0.0 4.8 0.00 0.00 0.00 29 1015.3
20260906014402 29 355 0.0 0.0 0.00 0.00 0.00 29 1015.3
20260906013901 29 327 0.0 0.0 0.00 0.00 0.00 28 1015.2
20260906013359 29 320 0.0 1.6 0.00 0.00 0.00 28 1015.2
20260906012900 30 0 0.0 1.6 0.00 0.00 0.00 27 1015.2
20260906012359 30 349 0.0 1.6 0.00 0.00 0.00 27 1015.1
20260906010859 31 0 0.0 1.6 0.00 0.00 0.00 26 1015.1
20260906010354 31 282 0.0 0.0 0.00 0.00 0.00 25 1015.0
20260906005848 31 285 0.0 0.0 0.00 0.00 0.00 25 1015.0
20260906005341 31 284 0.0 0.0 0.00 0.00 0.00 25 1015.1
20260906004834 31 280 0.0 0.0 0.00 0.00 0.00 25 1015.0
20260906004329 32 280 0.0 0.0 0.00 0.00 0.00 25 1015.0
20260906003824 32 280 0.0 0.0 0.00 0.00 0.00 25 1015.0
20260906003316 32 280 0.0 0.0 0.00 0.00 0.00 25 1015.0
20260906002811 32 280 0.0 0.0 0.00 0.00 0.00 25 1015.0
20260906002306 32 280 0.0 0.0 0.00 0.00 0.00 25 1014.8
20260906001759 32 280 0.0 0.0 0.00 0.00 0.00 24 1014.8
20260906001254 33 280 0.0 0.0 0.00 0.00 0.00 23 1014.8
20260906000241 33 280 0.0 0.0 0.00 0.00 0.00 23 1014.8
20260905235735 33 280 0.0 0.0 0.00 0.00 0.00 23 1014.7
20260905234723 33 280 0.0 0.0 0.00 0.00 0.00 22 1014.6
20260905234217 33 280 0.0 0.0 0.00 0.00 0.00 22 1014.6
20260905233711 33 280 0.0 0.0 0.00 0.00 0.00 23 1014.6
20260905233206 33 280 0.0 0.0 0.00 0.00 0.00 22 1014.6
20260905232659 33 280 0.0 0.0 0.00 0.00 0.00 23 1014.6
20260905232154 33 280 0.0 0.0 0.00 0.00 0.00 26 1014.6
20260905231648 33 280 0.0 0.0 0.00 0.00 0.00 25 1014.6
20260905231142 33 280 0.0 0.0 0.00 0.00 0.00 23 1014.6
20260905230634 32 280 0.0 0.0 0.00 0.00 0.00 22 1014.6
20260905230129 32 280 0.0 0.0 0.00 0.00 0.00 27 1014.6
20260905225623 33 280 0.0 0.0 0.00 0.00 0.00 25 1014.6
20260905225118 33 280 0.0 0.0 0.00 0.00 0.00 22 1014.5
20260905224612 33 280 0.0 0.0 0.00 0.00 0.00 24 1014.5
20260905223600 33 280 0.0 0.0 0.00 0.00 0.00 22 1014.5
20260905222547 33 279 0.0 0.0 0.00 0.00 0.00 25 1014.5
20260905222043 33 281 0.0 0.0 0.00 0.00 0.00 23 1014.5
20260905221536 33 284 0.0 0.0 0.00 0.00 0.00 24 1014.6
20260905220522 33 279 0.0 0.0 0.00 0.00 0.00 25 1014.7
20260905220018 33 279 0.0 0.0 0.00 0.00 0.00 24 1014.7
20260905215512 32 279 0.0 0.0 0.00 0.00 0.00 25 1015.0
20260905215006 32 279 0.0 0.0 0.00 0.00 0.00 24 1015.1
20260905214459 32 279 0.0 1.6 0.00 0.00 0.00 24 1015.1
20260905213952 32 279 0.0 1.6 0.00 0.00 0.00 23 1015.1
20260905213446 32 333 0.0 0.0 0.00 0.00 0.00 25 1015.1
20260905212941 32 332 0.0 0.0 0.00 0.00 0.00 23 1015.2
20260905211928 33 0 0.0 0.0 0.00 0.00 0.00 23 1015.2
20260905211423 33 44 0.0 0.0 0.00 0.00 0.00 27 1015.3
20260905210411 33 67 0.0 0.0 0.00 0.00 0.00 24 1015.4